Weather in Kharbatovo

Russia / Irkutsk Oblast     53°44′43″N   106°00′12″E
temp.,
°C
wind,
m/s
gust,
m/s
humid.,
%
clouds,
%
prec.,
mm/h
press.,
hPa
HPBL,
m
12 may, wed
wed1223:00+5wsw117658 0.7 101410
02:00+3wsw118061 0.8 101310
05:00+3wsw1184100 0.1 101212
08:00+6nnw3473100 0.2 1012603
11:00+6n4471100 1.7 10121107
14:00+9nw474196 2.8 10112371
17:00+10nnw6628100 0.0 10112625
20:00+6nnw484122 0.0 1013621
13 may, thu
thu1323:00+1nw225893 0.0 101620
02:00−1wnw21703 0.0 101611
05:00−2nw117624 0.0 101711
08:00+3nnw355416 0.0 1016969
11:00+6nnw4533100 0.1 10152297
14:00+8nnw5628100 0.1 10133246
17:00+8n5733100 0.0 10142333
20:00+5nne254935 0.1 1015134
14 may, fri
fri1423:00+1nw22634 0.0 101813
02:00−1wnw21735 0.0 101911
05:00−2w11797 0.0 101910
08:00+5n12545 0.0 1018407
11:00+9nne22415 0.0 10161241
14:00+13ne11300 0.0 10141541
17:00+14e13250 0.0 10111818
20:00+10se24400 0.0 101271
15 may, sat
sat1523:00+6ssw22526 0.0 101432
02:00+3ssw226065 0.0 101423
05:00+2s2260100 0.0 101418
08:00+8wsw143771 0.0 1014338
11:00+11nw6749100 0.0 10141646
14:00+13wnw6927100 0.0 10132147
17:00+12wnw7929100 0.0 10132280
20:00+7wnw51358100 0.0 10161374
16 may, sun
sun1623:00+6w51287100 0.0 10171292
02:00+6w41090100 0.1 10161253
05:00+7w3988100 0.6 10151016
08:00+9wsw5138082 0.8 10141113
11:00+15w71551100 0.0 10111747
14:00+17w6123999 0.0 10092251
17:00+18nw61139100 0.0 10082267
20:00+14nne016236 0.0 100811